Location: Goettingen
(51.5300°N, 9.9433°E)
Time: 17:41:13
(UTC+02:00)

ISS - Pass Details

Date: 11 May 2026
Orbit: 414 x 424 km, 51.6° (Epoch: 13 May)

Event Time Altitude Azimuth Distance (km) Brightness Sun altitude
Rises 21:41:42 0° 230° (SW) 2,343 0.2 -6.2°
Reaches altitude 10° 21:43:52 10° 222° (SW) 1,483 -0.9 -6.4°
Maximum altitude 21:46:58 37° 153° (SSE) 664 -3.2 -6.8°
Drops below altitude 10° 21:50:05 10° 84° (E) 1,492 -1.4 -7.2°
Sets 21:52:16 0° 76° (ENE) 2,358 -0.3 -7.4°
